Showing default

COSMOS 1168, 11735

Orbit data source: Space-Track

COSMOS 1168, 11735 is a payload satellite owned by VMF (CIS) in LEO that was launched on Mon, 17 Mar 1980 UTC via a KOSMOS 11K65M launch vehicle from the Plesetsk Missile And Space Complex (PKMTR). Payload-class satellites include a variety of spacecraft equipped with specific instruments for various scientific and technological missions. These include communications satellites like Starlink; space stations such as the ISS; scientific satellites like the Hubble; Earth observation satellites from companies like Planet Labs, Umbra, and HawkEye 360; GPS; miniature CubeSats for education and research; and military/defense satellites.

Loading next visibility...
Identifier
11735, 1980-022A
Orbit
LEO
Country
Flag of CISCIS
Related business
Manufacturer
Omsk Av. Zav.
Mission
Spacecraft
Bus & Motor
KAUR-1 11F643, Unknown motor
Mass
800 kg wet, 800 kg dry
Launch date (UTC)
1980-03-17 (46 years ago)
Launch vehicle
KOSMOS 11K65M
Launch site
Plesetsk Missile And Space Complex (PKMTR)
Object type
Payload
Rocket body
Debris
Shape & HBR
Unknown
Radar Cross Section
Large (>1 m²)

Expand to show TLE details & history
Last TLE update: 2 days ago

TLE from 2 days ago
0 COSMOS 1168
1 11735U 80022A   26171.36673549  .00000056  00000-0  43042-4 0  9997
2 11735  82.9468 272.0706 0035162 354.0948  69.8223 13.75253491320599
Epoch: 2026-06-20T08:48Z
TLE epoch observation values (Epoch: 2026-06-20T08:48:05.946Z)
Latitude
63.49768°
Longitude
-114.24573°
Altitude
982.85 km
Speed
7.371 km/s
True Right ascension
19h 05m 26s
True Declination
63° 21' 51"
Sunlit
Object was in daylight at epoch
Visualization orbit readout
Latitude
Unknown
Longitude
Unknown
Altitude
Unknown
Speed
Unknown
Apparent Right ascension
Unknown
Apparent Declination
Unknown
Sunlit
N/A
Visualization observer readout
Local Sidereal Time
02:14:43
Azimuth
Unknown
Elevation
Unknown
Doppler factor
Unknown
Orbital elements
Apogee altitude
1,003.784 km
Perigee altitude
952.053 km
Semi-major axis
7,356.056 km
Eccentricity
0.00352
Inclination
82.9468°
RAAN
272.0706°
Arg. of periapsis
354.0948°
True anomaly
70.20107°
Mean anomaly
69.8223°
Eccentric anomaly
70.01163°
Mean motion
3.44014 °/min
Orbital period
104.65 mins
BSTAR
0.000043042
Loading maneuver chart data...
Computing Atmospheric mass density...
Loading historical data...
Loading historical data...
Loading historical data...
Loading historical data...
Loading historical data...
Loading historical data...
Loading historical data...
Other satellites on launch #22 in the year 1980 (1980-03-17 UTC)

Documentation

Showing up to 5 results
|